User: anonymous   Login
Location: ????????
(38.4362°N, 22.8767°E)
Time: 13:27:19
(UTC+00:00)
Language:

IRS-1D - Orbit

View from above orbital plane
View from above orbital plane
View from above satellite
View from above satellite

Ground track
Ground track

The orbit data is extracted from the following two-line orbital elements,

1 24971U 97057A   24172.14526192  .00000200  00000-0  85534-4 0  9998
2 24971  98.7623 140.6584 0052114 208.1533 151.6832 14.34771960398326
Epoch (UTC): 20 June 2024 03:29:10
Eccentricity: 0.0052114
inclination: 98.7623°
perigee height: 738 km
apogee height: 813 km
right ascension of ascending node: 140.6584°
argument of perigee: 208.1533°
revolutions per day: 14.34771960
mean anomaly at epoch: 151.6832°
orbit number at epoch: 39832

The dashed part of the orbit path shows where the satellite is in the earth's shadow,  

DLR